Location: La Pernelle
(49.6188°N, 1.2999°W)
Time: 11:52:12
(UTC+00:00)

Cosmos 1954 Rocket - Pass Details

Date: 01 November 2021
Orbit: 751 x 782 km, 74.0° (Epoch: 26 November)

Event Time Altitude Azimuth Distance (km) Brightness Sun altitude
Rises 18:27:38 0° 335° (NNW) 3,248 7.5 -17.4°
Reaches altitude 10° 18:30:01 10° 335° (NNW) 2,322 6.8 -17.8°
Maximum altitude 18:35:18 84° 248° (WSW) 785 4.0 -18.6°
Drops below altitude 10° 18:40:35 10° 161° (SSE) 2,323 6.3 -19.5°
Sets 18:42:58 0° 161° (SSE) 3,250 7.1 -19.9°
